Lid_Strength_Index
12 10 10 11 11 11 12 12 15 12 11 9 7 7 6 6 7 7 7 6 5 6 6 7 7 8 8 8 8 8 8 9 9 9 9 10 10 11 11 12 12 12 12 12
15 11 10 12 10 10 10 11 11 10 11 7 6 5 6 7 8 8 8 7 6 7 7 8 8 9 9 9 8 8 9 10 10 10 10 11 12 12 12 12 12 13 13 13
18 13 13 17 13 11 10 9 10 13 10 7 7 7 7 7 8 8 8 8 7 8 7 9 9 9 9 9 8 9 9 13 12 11 13 13 13 13 13 13 13 13 13 13
16 15 21 13 8 8 10 9 8 8 8 7 6 5 5 6 8 8 8 8 8 8 9 9 9 9 9 8 9 9 10 10 12 12 13 14 14 14 14 14 14 14 13 12
17 17 14 12 10 10 11 12 8 8 7 7 6 6 6 6 6 7 7 8 8 9 9 9 9 9 9 9 9 10 10 11 11 12 13 14 15 15 14 14 14 13 13 13
15 18 20 12 8 6 8 15 8 7 7 7 7 10 8 7 7 8 9 9 10 9 9 9 9 8 9 10 10 10 11 11 11 12 12 13 14 14 13 13 13 12 13 13
16 17 14 8 7 7 17 14 7 7 7 7 8 7 7 8 9 10 10 10 9 10 9 9 8 9 10 10 10 11 12 12 12 12 12 13 13 13 12 12 12 11 11 11
16 17 19 7 8 12 9 7 6 7 7 7 6 6 7 9 10 11 11 11 11 11 10 9 9 9 10 12 14 13 12 13 13 13 13 13 13 12 12 12 11 11 10 8
14 15 9 6 7 6 7 7 7 7 6 6 6 5 7 9 10 10 11 11 11 10 11 10 10 10 13 14 15 14 14 14 14 13 13 12 13 12 11 11 11 10 9 9
12 10 10 9 6 8 8 8 7 7 5 5 6 6 6 6 8 10 11 11 11 11 11 13 11 11 12 14 14 14 14 14 13 13 12 12 11 11 11 11 10 9 10 10
11 9 9 9 7 9 9 8 7 7 6 6 6 7 8 9 9 10 11 10 9 9 10 12 11 12 13 14 14 13 13 13 13 12 12 12 11 11 10 10 10 9 10 10
12 8 9 8 8 7 8 9 8 8 7 7 6 8 8 10 10 10 9 8 8 8 10 12 11 12 13 12 13 13 13 12 11 12 11 11 11 10 10 10 10 11 10 10
8 6 6 7 7 5 7 8 8 8 7 8 8 8 9 9 8 9 8 8 8 9 10 11 11 11 11 11 11 11 11 11 11 12 11 11 9 9 11 11 10 11 11 10
5 7 9 8 8 8 8 8 8 8 8 7 8 7 8 8 9 9 9 9 9 10 10 10 10 11 11 11 10 10 10 13 11 11 11 10 9 9 9 10 10 10 10 10
6 6 6 7 8 8 9 9 9 9 10 9 8 8 9 9 10 9 8 9 9 9 9 9 10 11 11 10 10 10 10 10 10 10 10 9 8 8 8 9 9 10 9 9
6 6 6 7 7 7 8 8 9 9 8 8 8 8 8 8 8 8 8 8 9 9 9 10 10 10 10 9 9 10 10 11 10 10 9 8 8 8 9 9 9 10 10 9
7 8 7 7 7 7 7 8 8 8 8 8 8 8 8 8 8 8 8 8 8 9 9 9 10 10 10 9 9 9 9 9 10 9 8 8 8 8 8 9 10 10 10 10
6 6 6 6 7 8 8 8 8 7 8 8 9 10 11 10 10 10 10 10 11 11 10 11 11 11 11 9 9 8 9 9 8 9 8 8 8 8 9 9 9 10 10 10
6 7 6 7 7 7 8 8 9 9 11 11 11 12 12 11 11 11 11 11 11 12 12 11 12 10 8 9 8 7 8 8 8 7 8 9 8 8 9 9 10 10 10 10
8 8 8 8 8 9 10 11 10 11 11 12 12 12 12 11 11 11 10 10 9 9 9 10 9 8 7 8 9 6 6 7 7 8 9 9 9 9 9 10 10 10 10 11
8 9 10 11 12 11 11 11 11 12 12 11 11 11 11 11 10 10 10 10 10 9 8 9 7 7 6 7 6 6 6 7 7 8 9 9 9 9 9 9 10 10 10 10
9 10 11 11 11 11 11 11 11 11 11 11 11 11 11 11 10 10 9 9 8 9 7 7 6 7 6 8 6 6 6 7 8 8 9 9 9 10 10 10 10 10 10 10
10 10 10 10 10 10 10 10 10 10 11 11 11 10 10 10 9 9 9 7 7 7 6 6 8 8 8 6 6 6 7 8 8 8 9 9 10 10 10 10 10 9 9 9
9 10 10 10 10 10 11 11 11 10 10 10 10 9 8 8 7 6 6 8 8 8 7 7 8 8 7 7 7 8 8 8 8 8 8 9 8 9 9 9 9 8 9 9
9 10 10 10 10 11 11 11 11 10 10 9 8 7 6 6 6 7 7 7 9 8 8 8 8 8 8 8 8 8 8 8 8 8 8 8 8 8 8 8 9 9 9 9
8 9 9 9 9 9 10 9 9 9 8 8 7 7 7 6 7 7 7 8 7 8 7 8 8 8 7 7 8 8 8 8 8 8 8 8 8 8 9 9 9 9 8 8
7 7 8 8 8 8 8 9 9 9 7 7 8 7 7 7 7 7 7 7 7 8 8 8 7 8 8 8 8 7 7 7 7 7 7 8 8 8 8 8 8 8 8 9